QPF
0.00 0.00 0.00 0.00 0.00 0.00 0.00 0.00 0.00 0.00 0.00 0.00 0.00 0.00 0.00 0.00 0.00 0.00 0.00 0.00 0.00 0.00 0.00 0.00 0.00 0.00 0.00 0.00 0.00 0.00 0.00 0.00 0.00 0.00 0.00 0.00 0.00 0.00 0.00 0.00 0.00 0.00 0.00 0.00 0.00 0.00 0.00
0.00 0.00 0.00 0.00 0.00 0.00 0.00 0.00 0.01 0.01 0.00 0.00 0.00 0.00 0.00 0.00 0.00 0.00 0.00 0.00 0.00 0.00 0.00 0.00 0.00 0.00 0.00 0.00 0.00 0.00 0.00 0.00 0.00 0.00 0.00 0.00 0.00 0.00 0.00 0.00 0.00 0.00 0.00 0.00 0.00 0.00 0.00
0.00 0.00 0.00 0.00 0.00 0.01 0.01 0.00 0.00 0.00 0.00 0.00 0.00 0.00 0.00 0.00 0.00 0.00 0.00 0.00 0.00 0.00 0.00 0.00 0.00 0.00 0.00 0.00 0.00 0.00 0.00 0.00 0.00 0.00 0.00 0.00 0.00 0.00 0.00 0.00 0.00 0.00 0.00 0.00 0.00 0.00 0.00
0.00 0.00 0.00 0.00 0.00 0.00 0.00 0.00 0.00 0.00 0.00 0.01 0.00 0.00 0.00 0.00 0.00 0.00 0.00 0.00 0.00 0.00 0.00 0.00 0.00 0.00 0.00 0.00 0.00 0.00 0.00 0.00 0.00 0.00 0.00 0.00 0.00 0.00 0.00 0.00 0.00 0.00 0.00 0.00 0.00 0.00 0.00
0.00 0.00 0.00 0.00 0.00 0.00 0.00 0.01 0.01 0.00 0.00 0.00 0.00 0.00 0.00 0.00 0.00 0.00 0.00 0.00 0.00 0.00 0.00 0.00 0.00 0.00 0.00 0.00 0.00 0.00 0.00 0.00 0.00 0.00 0.00 0.00 0.00 0.00 0.00 0.00 0.00 0.00 0.00 0.00 0.00 0.00 0.00
0.00 0.00 0.00 0.00 0.00 0.00 0.00 0.01 0.00 0.00 0.00 0.00 0.00 0.00 0.00 0.00 0.00 0.00 0.00 0.00 0.00 0.00 0.00 0.00 0.00 0.00 0.00 0.00 0.00 0.00 0.00 0.00 0.00 0.00 0.00 0.00 0.00 0.00 0.00 0.00 0.00 0.00 0.00 0.00 0.00 0.00 0.00
0.01 0.01 0.00 0.00 0.00 0.00 0.00 0.01 0.00 0.00 0.00 0.00 0.00 0.00 0.00 0.00 0.00 0.00 0.00 0.00 0.00 0.00 0.00 0.00 0.00 0.00 0.00 0.00 0.00 0.00 0.00 0.00 0.00 0.00 0.00 0.00 0.00 0.00 0.00 0.00 0.00 0.00 0.00 0.00 0.00 0.00 0.00
0.01 0.00 0.00 0.00 0.00 0.00 0.00 0.01 0.01 0.00 0.00 0.00 0.00 0.00 0.00 0.00 0.00 0.00 0.00 0.00 0.00 0.00 0.00 0.00 0.00 0.00 0.00 0.00 0.00 0.00 0.00 0.00 0.00 0.00 0.00 0.00 0.00 0.00 0.00 0.00 0.00 0.00 0.00 0.00 0.00 0.00 0.00
0.00 0.00 0.01 0.00 0.00 0.00 0.00 0.01 0.01 0.00 0.00 0.00 0.00 0.00 0.00 0.00 0.00 0.00 0.00 0.00 0.00 0.00 0.00 0.00 0.00 0.00 0.00 0.00 0.00 0.00 0.00 0.00 0.00 0.00 0.00 0.00 0.00 0.00 0.00 0.00 0.00 0.00 0.00 0.00 0.00 0.00 0.00
0.00 0.01 0.01 0.01 0.00 0.00 0.00 0.00 0.00 0.00 0.00 0.00 0.00 0.00 0.00 0.00 0.00 0.00 0.00 0.00 0.00 0.00 0.00 0.00 0.00 0.00 0.00 0.00 0.00 0.00 0.00 0.00 0.00 0.00 0.00 0.00 0.00 0.00 0.00 0.00 0.00 0.00 0.00 0.00 0.00 0.00 0.00
0.01 0.01 0.01 0.01 0.01 0.00 0.00 0.00 0.00 0.00 0.00 0.00 0.00 0.00 0.00 0.00 0.01 0.00 0.00 0.00 0.00 0.00 0.00 0.00 0.00 0.00 0.00 0.00 0.00 0.00 0.00 0.00 0.00 0.00 0.00 0.00 0.00 0.00 0.00 0.00 0.00 0.00 0.00 0.00 0.00 0.00 0.00
0.01 0.01 0.01 0.01 0.01 0.01 0.01 0.00 0.00 0.00 0.00 0.00 0.00 0.00 0.00 0.00 0.01 0.00 0.00 0.00 0.00 0.00 0.00 0.00 0.00 0.00 0.00 0.00 0.00 0.00 0.00 0.00 0.00 0.00 0.00 0.00 0.00 0.00 0.00 0.00 0.00 0.00 0.00 0.00 0.00 0.00 0.00
0.01 0.00 0.01 0.01 0.02 0.02 0.01 0.00 0.00 0.00 0.00 0.00 0.00 0.00 0.00 0.00 0.01 0.00 0.00 0.00 0.00 0.00 0.00 0.00 0.00 0.00 0.00 0.00 0.00 0.00 0.00 0.00 0.00 0.00 0.00 0.00 0.00 0.00 0.00 0.00 0.00 0.00 0.00 0.00 0.00 0.00 0.00
0.01 0.01 0.01 0.01 0.02 0.02 0.01 0.01 0.00 0.00 0.00 0.00 0.00 0.00 0.00 0.00 0.00 0.00 0.00 0.00 0.00 0.00 0.00 0.00 0.00 0.00 0.00 0.00 0.00 0.00 0.00 0.00 0.00 0.00 0.00 0.00 0.00 0.00 0.00 0.00 0.00 0.00 0.00 0.00 0.00 0.00 0.00
0.02 0.03 0.03 0.02 0.01 0.01 0.01 0.01 0.01 0.00 0.00 0.00 0.00 0.00 0.00 0.00 0.00 0.01 0.00 0.00 0.00 0.00 0.00 0.00 0.00 0.00 0.00 0.00 0.00 0.00 0.00 0.00 0.00 0.00 0.00 0.00 0.00 0.00 0.00 0.00 0.00 0.00 0.00 0.00 0.00 0.00 0.00
0.03 0.03 0.02 0.02 0.02 0.01 0.02 0.02 0.02 0.00 0.00 0.00 0.02 0.00 0.00 0.00 0.01 0.03 0.01 0.00 0.00 0.00 0.00 0.00 0.00 0.00 0.00 0.00 0.00 0.00 0.00 0.00 0.00 0.00 0.00 0.00 0.00 0.00 0.00 0.00 0.00 0.00 0.00 0.00 0.00 0.00 0.00
0.02 0.02 0.02 0.03 0.03 0.02 0.02 0.03 0.02 0.00 0.00 0.02 0.03 0.01 0.00 0.00 0.04 0.03 0.01 0.00 0.00 0.00 0.00 0.00 0.00 0.00 0.00 0.00 0.00 0.00 0.00 0.00 0.00 0.00 0.00 0.00 0.00 0.00 0.00 0.00 0.00 0.00 0.00 0.00 0.00 0.00 0.00
0.01 0.02 0.02 0.02 0.01 0.01 0.01 0.03 0.03 0.01 0.01 0.03 0.03 0.01 0.01 0.04 0.02 0.01 0.01 0.00 0.00 0.00 0.00 0.00 0.00 0.00 0.00 0.00 0.00 0.00 0.00 0.00 0.00 0.00 0.00 0.00 0.00 0.00 0.00 0.00 0.00 0.00 0.00 0.00 0.00 0.00 0.00
0.02 0.02 0.03 0.04 0.03 0.03 0.03 0.04 0.03 0.01 0.02 0.04 0.02 0.01 0.02 0.07 0.01 0.00 0.01 0.00 0.00 0.00 0.00 0.00 0.00 0.00 0.00 0.00 0.00 0.00 0.00 0.00 0.00 0.00 0.00 0.00 0.00 0.00 0.00 0.00 0.00 0.00 0.00 0.00 0.00 0.00 0.00
0.01 0.00 0.00 0.01 0.02 0.02 0.03 0.02 0.03 0.01 0.03 0.06 0.03 0.02 0.02 0.04 0.01 0.01 0.01 0.01 0.00 0.00 0.00 0.00 0.00 0.00 0.00 0.00 0.00 0.00 0.00 0.00 0.00 0.00 0.00 0.00 0.00 0.00 0.00 0.00 0.00 0.00 0.00 0.00 0.00 0.00 0.00
0.01 0.01 0.02 0.02 0.02 0.02 0.02 0.03 0.03 0.02 0.03 0.07 0.04 0.02 0.02 0.02 0.01 0.01 0.02 0.01 0.01 0.00 0.00 0.00 0.00 0.00 0.00 0.00 0.00 0.00 0.00 0.00 0.00 0.00 0.00 0.00 0.00 0.00 0.00 0.00 0.00 0.00 0.00 0.00 0.00 0.00 0.00
0.01 0.01 0.02 0.02 0.03 0.04 0.02 0.03 0.03 0.02 0.03 0.07 0.03 0.02 0.02 0.01 0.01 0.01 0.01 0.01 0.01 0.00 0.00 0.00 0.00 0.00 0.00 0.00 0.00 0.00 0.00 0.00 0.00 0.00 0.00 0.00 0.00 0.00 0.00 0.00 0.00 0.00 0.00 0.00 0.00 0.00 0.00
0.02 0.02 0.02 0.02 0.02 0.02 0.02 0.03 0.04 0.01 0.05 0.05 0.03 0.03 0.03 0.02 0.01 0.01 0.01 0.01 0.00 0.01 0.01 0.00 0.00 0.00 0.00 0.00 0.00 0.00 0.00 0.00 0.00 0.00 0.00 0.00 0.00 0.00 0.00 0.00 0.00 0.00 0.00 0.00 0.00 0.00 0.00
0.02 0.02 0.02 0.01 0.01 0.01 0.02 0.02 0.03 0.02 0.04 0.04 0.04 0.04 0.02 0.01 0.01 0.00 0.00 0.00 0.00 0.01 0.01 0.00 0.00 0.00 0.00 0.00 0.00 0.00 0.00 0.00 0.00 0.00 0.00 0.00 0.01 0.00 0.00 0.00 0.00 0.00 0.00 0.00 0.00 0.00 0.00
0.00 0.01 0.01 0.02 0.01 0.01 0.01 0.01 0.01 0.01 0.02 0.06 0.04 0.04 0.02 0.01 0.00 0.00 0.00 0.00 0.01 0.01 0.00 0.00 0.00 0.00 0.00 0.00 0.01 0.00 0.01 0.01 0.00 0.00 0.00 0.00 0.00 0.00 0.00 0.00 0.00 0.00 0.00 0.00 0.00 0.00 0.00
0.00 0.01 0.01 0.01 0.02 0.02 0.02 0.02 0.02 0.01 0.02 0.06 0.04 0.04 0.03 0.02 0.01 0.00 0.01 0.01 0.01 0.01 0.00 0.00 0.00 0.00 0.00 0.01 0.02 0.01 0.01 0.01 0.00 0.00 0.00 0.00 0.00 0.00 0.00 0.00 0.00 0.00 0.00 0.00 0.00 0.00 0.00
0.00 0.00 0.00 0.01 0.01 0.01 0.02 0.02 0.02 0.02 0.01 0.05 0.04 0.04 0.04 0.02 0.01 0.01 0.01 0.01 0.02 0.01 0.01 0.00 0.00 0.00 0.00 0.01 0.02 0.01 0.00 0.00 0.01 0.01 0.01 0.00 0.01 0.00 0.01 0.01 0.00 0.00 0.00 0.00 0.00 0.00 0.00
0.01 0.01 0.00 0.01 0.01 0.01 0.02 0.02 0.02 0.02 0.01 0.05 0.03 0.04 0.03 0.01 0.02 0.02 0.01 0.01 0.01 0.02 0.02 0.01 0.00 0.00 0.00 0.01 0.02 0.01 0.01 0.00 0.00 0.01 0.00 0.00 0.00 0.00 0.00 0.01 0.00 0.00 0.00 0.00 0.00 0.00 0.00
0.02 0.01 0.01 0.01 0.01 0.01 0.02 0.02 0.03 0.03 0.02 0.04 0.03 0.03 0.04 0.02 0.02 0.01 0.01 0.01 0.00 0.01 0.01 0.01 0.01 0.00 0.00 0.01 0.01 0.01 0.00 0.00 0.00 0.00 0.00 0.01 0.00 0.00 0.00 0.00 0.00 0.00 0.00 0.00 0.00 0.00 0.00
MSLP
1024.90 1024.91 1024.55 1024.22 1023.96 1023.76 1023.45 1023.44 1023.16 1022.98 1022.68 1022.41 1022.11 1021.67 1021.35 1020.78 1020.49 1020.00 1019.69 1019.15 1018.89 1018.70 1018.08 1017.91 1017.83 1017.58 1016.40 1014.43 1011.98 1010.66 1010.91 1010.52 1010.31 1010.27 1009.57 1008.71 1008.24 1007.80 1006.92 1006.55 1006.68 1006.45 1005.37 1005.49 1005.87 1005.98 1006.04
1024.51 1024.64 1024.61 1024.20 1023.92 1023.59 1023.32 1023.13 1023.02 1022.89 1022.42 1022.08 1021.85 1021.46 1021.15 1020.68 1020.24 1019.81 1019.40 1018.81 1018.29 1017.88 1017.58 1017.47 1017.54 1017.49 1016.49 1014.01 1011.06 1010.78 1010.92 1010.44 1010.20 1009.95 1009.38 1008.75 1008.04 1007.62 1007.04 1006.47 1006.20 1005.66 1005.58 1005.16 1005.34 1005.53 1005.63
1024.24 1024.17 1024.31 1024.23 1023.85 1023.62 1023.29 1023.02 1023.00 1022.57 1022.49 1021.91 1021.47 1021.19 1021.06 1020.49 1019.99 1019.59 1019.04 1018.37 1017.71 1017.22 1016.81 1016.87 1017.08 1016.88 1015.79 1012.86 1010.55 1010.70 1011.05 1010.66 1010.48 1010.02 1009.14 1008.64 1008.44 1008.27 1007.05 1006.53 1006.34 1005.79 1005.64 1005.11 1004.89 1004.97 1004.87
1024.12 1023.78 1023.89 1023.99 1023.70 1023.60 1023.16 1022.88 1022.75 1022.46 1022.25 1021.66 1021.44 1021.15 1020.98 1020.14 1019.68 1019.18 1018.52 1017.92 1017.09 1016.54 1016.09 1015.94 1016.10 1016.18 1014.07 1011.08 1011.01 1010.52 1010.55 1010.06 1010.28 1010.19 1009.66 1008.77 1008.60 1008.31 1007.58 1006.47 1006.26 1005.79 1005.35 1004.15 1003.63 1004.16 1004.68
1023.62 1023.62 1023.36 1023.64 1023.49 1023.40 1022.89 1022.66 1022.39 1022.37 1021.75 1021.50 1021.58 1021.22 1020.74 1019.99 1019.34 1018.79 1017.91 1017.01 1016.36 1015.86 1015.60 1015.49 1015.50 1015.08 1012.15 1010.88 1010.52 1009.47 1009.60 1009.69 1009.44 1009.61 1009.34 1008.96 1008.49 1007.74 1007.27 1006.65 1005.64 1005.15 1003.87 1003.62 1003.39 1004.10 1004.17
1023.69 1023.18 1023.20 1023.17 1023.21 1022.79 1022.98 1022.39 1022.00 1022.00 1021.76 1021.63 1021.46 1021.08 1020.46 1019.83 1019.14 1018.50 1017.48 1016.11 1015.45 1015.64 1015.29 1015.09 1014.72 1014.91 1011.25 1010.05 1009.35 1009.10 1009.22 1009.38 1009.04 1008.87 1008.89 1008.59 1007.85 1006.95 1006.58 1005.74 1004.04 1003.82 1003.86 1003.37 1003.23 1003.51 1004.02
1023.26 1023.43 1022.79 1022.72 1023.02 1022.62 1022.44 1022.11 1021.71 1021.82 1021.80 1021.59 1021.15 1020.87 1020.24 1019.60 1018.95 1018.26 1016.97 1014.95 1015.06 1014.99 1015.05 1014.19 1012.74 1011.64 1010.51 1010.06 1009.44 1008.53 1008.83 1009.15 1008.75 1008.17 1007.34 1007.38 1006.72 1005.14 1004.69 1004.95 1004.80 1003.95 1003.86 1003.24 1003.00 1003.65 1003.83
1023.05 1022.91 1022.89 1022.58 1022.60 1022.39 1022.04 1021.69 1021.64 1021.72 1021.68 1021.49 1021.05 1020.58 1020.07 1019.48 1018.73 1018.20 1016.98 1016.14 1017.52 1017.97 1015.44 1013.27 1012.05 1011.30 1010.94 1011.00 1010.18 1008.50 1008.36 1008.61 1008.00 1007.01 1006.79 1006.78 1005.26 1004.70 1004.98 1004.89 1005.00 1004.57 1004.15 1003.64 1003.51 1004.15 1004.03
1022.35 1022.39 1022.69 1022.39 1022.19 1022.05 1021.75 1021.57 1021.55 1021.61 1021.42 1021.31 1020.86 1020.46 1019.91 1019.36 1018.56 1018.16 1017.41 1017.03 1017.41 1017.35 1015.73 1011.53 1010.64 1010.41 1010.08 1010.60 1009.60 1008.57 1008.41 1007.84 1007.25 1006.44 1005.97 1005.29 1004.35 1004.66 1004.96 1005.01 1004.86 1004.21 1004.07 1003.97 1003.93 1004.07 1003.85
1021.96 1021.95 1022.10 1022.05 1021.73 1021.63 1021.36 1021.49 1021.47 1021.28 1021.16 1021.00 1020.64 1020.29 1019.79 1019.17 1018.69 1017.93 1017.10 1017.14 1016.91 1017.24 1015.25 1010.96 1009.71 1009.41 1009.63 1009.48 1009.05 1008.59 1008.30 1007.38 1006.96 1006.21 1006.16 1005.20 1004.39 1004.64 1004.72 1004.32 1004.46 1003.75 1004.08 1004.48 1004.23 1004.19 1002.61
1021.76 1021.42 1021.54 1021.62 1021.21 1021.26 1021.31 1021.15 1021.07 1021.10 1020.86 1020.58 1020.33 1020.14 1019.69 1019.17 1018.43 1017.46 1017.51 1017.16 1016.72 1016.82 1013.61 1010.03 1009.10 1008.81 1009.07 1008.91 1008.33 1007.95 1007.55 1007.63 1006.67 1005.98 1005.95 1004.37 1004.34 1004.15 1004.13 1003.83 1004.01 1003.73 1004.07 1004.46 1004.23 1003.88 1003.31
1021.43 1021.02 1021.01 1021.03 1020.91 1020.74 1020.95 1020.84 1020.69 1020.70 1020.57 1020.29 1019.99 1019.85 1019.44 1018.52 1018.35 1017.77 1017.38 1017.08 1016.40 1015.17 1011.72 1009.84 1008.88 1008.60 1008.57 1008.08 1007.98 1007.59 1007.41 1007.15 1006.60 1006.22 1005.51 1004.38 1004.48 1004.36 1003.83 1003.88 1004.05 1004.16 1004.50 1004.46 1004.31 1003.75 1002.86
1020.79 1020.59 1020.56 1020.55 1020.47 1020.39 1020.33 1020.39 1020.29 1020.28 1020.38 1020.01 1019.83 1019.62 1019.32 1018.50 1017.57 1017.92 1017.56 1016.30 1015.20 1012.98 1010.94 1010.19 1009.39 1008.67 1008.02 1007.27 1007.13 1007.35 1007.09 1007.03 1005.89 1006.18 1005.04 1004.53 1004.17 1004.15 1004.02 1003.53 1003.95 1004.06 1004.13 1003.38 1003.29 1002.75 1001.92
1019.89 1019.98 1020.02 1019.83 1020.12 1019.98 1019.80 1019.84 1019.93 1019.82 1019.91 1019.76 1019.52 1019.38 1018.43 1018.04 1017.59 1017.97 1017.46 1015.93 1014.03 1012.18 1011.30 1010.65 1009.96 1008.71 1007.75 1007.31 1006.78 1006.60 1006.61 1006.58 1005.93 1005.36 1004.53 1004.19 1003.74 1003.74 1003.49 1003.05 1002.81 1003.02 1002.84 1002.09 1001.66 1001.54 1001.05
1019.31 1019.25 1019.34 1019.35 1019.35 1019.48 1019.44 1019.38 1019.40 1019.40 1019.44 1019.48 1019.27 1018.37 1017.81 1017.32 1017.43 1018.00 1017.53 1015.44 1012.71 1012.08 1011.95 1011.24 1010.12 1008.99 1008.19 1007.86 1007.33 1006.58 1006.33 1006.16 1005.54 1005.24 1004.46 1003.81 1003.10 1002.85 1002.99 1002.94 1002.83 1002.74 1002.57 1002.69 1002.29 1002.58 1001.59
1018.59 1018.57 1018.72 1018.69 1018.79 1018.79 1018.86 1018.84 1018.92 1018.90 1019.07 1019.20 1018.98 1018.29 1016.82 1016.72 1016.93 1017.39 1017.09 1014.88 1013.17 1012.48 1012.18 1011.79 1010.78 1010.15 1009.22 1008.69 1007.70 1006.86 1006.55 1006.51 1005.90 1004.96 1004.63 1003.69 1003.08 1002.73 1002.68 1002.94 1002.73 1002.24 1001.88 1002.44 1002.58 1001.79 1001.20
1017.99 1017.93 1017.89 1017.87 1018.24 1018.35 1018.28 1018.29 1018.43 1018.59 1018.53 1018.91 1018.77 1017.43 1015.69 1016.13 1016.83 1016.91 1015.82 1014.15 1013.20 1012.55 1012.36 1012.20 1011.48 1010.86 1010.28 1009.64 1008.87 1007.82 1007.21 1006.77 1006.45 1005.41 1004.86 1004.12 1003.49 1003.09 1002.90 1002.35 1001.61 1002.19 1001.77 1001.76 1001.50 1001.57 1000.87
1017.12 1017.03 1017.11 1017.27 1017.46 1017.42 1017.54 1017.74 1017.89 1018.07 1018.11 1018.66 1017.89 1016.87 1015.86 1016.23 1016.74 1015.94 1015.09 1014.04 1013.55 1012.56 1012.39 1012.16 1011.89 1011.47 1011.06 1010.56 1009.67 1008.79 1007.80 1007.17 1007.06 1005.94 1004.77 1004.51 1004.03 1002.98 1002.28 1002.51 1001.91 1001.40 1001.53 1001.81 1001.67 1001.70 1001.76
1016.38 1016.36 1016.42 1016.46 1016.56 1016.74 1016.83 1017.07 1017.19 1017.58 1017.62 1017.73 1017.00 1016.41 1015.87 1016.10 1015.65 1015.17 1014.66 1014.11 1013.25 1012.59 1012.20 1012.00 1011.68 1011.69 1011.32 1011.05 1010.48 1009.11 1008.13 1007.70 1007.75 1006.87 1006.33 1005.54 1004.17 1003.33 1002.91 1002.99 1002.77 1002.31 1002.59 1002.46 1002.64 1002.61 1001.64
1015.42 1015.49 1015.48 1015.51 1015.66 1015.88 1016.13 1016.45 1016.67 1016.85 1017.10 1017.80 1016.82 1015.97 1015.78 1015.70 1015.08 1014.45 1013.82 1013.41 1012.85 1012.65 1012.19 1012.08 1011.73 1011.88 1011.68 1011.08 1010.47 1009.52 1008.75 1008.28 1008.09 1007.81 1007.26 1006.21 1004.84 1003.89 1003.01 1002.80 1002.76 1003.29 1003.34 1003.38 1003.03 1002.66 1002.04
1014.45 1014.45 1014.50 1014.73 1014.86 1014.93 1015.21 1015.56 1015.86 1016.10 1016.43 1017.33 1016.62 1015.43 1014.04 1014.36 1014.26 1014.04 1013.56 1012.92 1012.04 1011.96 1012.21 1011.98 1011.67 1011.59 1011.51 1011.27 1010.28 1009.75 1009.26 1008.76 1008.37 1008.12 1007.35 1006.84 1006.00 1005.17 1004.59 1004.45 1004.25 1003.95 1003.65 1003.56 1003.30 1003.14 1002.75
1013.37 1013.37 1013.47 1013.61 1013.82 1014.05 1014.29 1014.67 1014.82 1015.56 1015.86 1016.48 1015.84 1015.31 1014.74 1013.78 1013.25 1013.24 1012.85 1012.49 1011.86 1011.79 1011.78 1011.47 1011.45 1011.32 1011.51 1011.16 1010.73 1009.78 1009.84 1009.65 1009.10 1008.62 1008.04 1007.51 1006.40 1006.01 1005.50 1005.16 1004.86 1004.31 1003.81 1003.42 1003.12 1002.88 1002.55
1012.23 1012.32 1012.44 1012.63 1012.84 1013.09 1013.42 1013.73 1014.09 1014.58 1015.25 1014.94 1015.37 1015.24 1015.11 1013.41 1012.87 1012.35 1011.79 1011.80 1011.49 1011.63 1011.44 1011.26 1011.39 1011.47 1011.54 1011.11 1011.04 1010.72 1010.69 1010.54 1010.13 1009.61 1009.18 1008.44 1007.40 1006.75 1005.92 1005.84 1005.19 1004.31 1003.35 1002.95 1002.65 1002.24 1002.09
1010.90 1011.10 1011.27 1011.49 1011.81 1012.07 1012.34 1012.66 1012.99 1013.65 1014.10 1014.33 1014.59 1014.95 1014.76 1013.37 1012.61 1011.60 1011.49 1011.35 1011.16 1011.30 1011.43 1011.26 1011.79 1011.77 1012.04 1011.98 1011.39 1010.93 1010.58 1010.30 1010.04 1009.66 1009.81 1009.00 1008.22 1007.82 1006.78 1006.71 1005.18 1003.27 1003.32 1003.04 1002.75 1002.45 1002.18
1009.58 1009.72 1009.96 1010.25 1010.60 1010.88 1011.16 1011.61 1012.12 1012.85 1013.32 1013.85 1014.12 1014.55 1014.16 1013.12 1011.87 1011.30 1011.08 1010.94 1011.03 1011.41 1012.14 1012.17 1011.60 1011.97 1012.64 1013.09 1012.02 1010.42 1009.59 1009.48 1009.04 1009.10 1009.18 1009.37 1008.77 1008.14 1007.40 1006.13 1004.55 1003.89 1003.02 1002.85 1002.61 1002.41 1002.73
1008.03 1008.23 1008.51 1008.81 1009.16 1009.62 1010.06 1010.55 1011.15 1011.78 1012.36 1013.01 1013.25 1013.88 1013.96 1013.13 1011.45 1010.54 1010.44 1010.59 1010.67 1011.05 1011.76 1012.00 1012.46 1012.66 1013.00 1012.85 1011.70 1009.87 1008.40 1007.86 1007.94 1008.04 1008.48 1009.16 1009.10 1008.44 1007.77 1006.40 1004.94 1003.28 1003.48 1003.40 1003.01 1002.78 1003.04
1006.03 1006.40 1006.89 1007.30 1007.78 1008.35 1008.91 1009.45 1010.07 1010.69 1011.35 1012.04 1012.09 1013.03 1013.70 1012.87 1011.70 1011.39 1010.22 1010.05 1010.44 1011.00 1011.44 1011.70 1012.23 1012.34 1012.72 1012.12 1010.96 1009.50 1008.41 1008.03 1007.34 1007.09 1007.88 1008.34 1008.43 1007.78 1007.22 1006.11 1004.77 1003.85 1003.58 1003.61 1003.46 1004.01 1003.84
1003.67 1004.39 1005.04 1005.68 1006.31 1006.94 1007.51 1008.09 1008.70 1009.43 1010.16 1011.14 1011.23 1011.91 1012.60 1012.19 1011.85 1010.81 1010.23 1009.88 1009.96 1010.57 1011.00 1011.17 1011.94 1011.83 1011.97 1011.22 1009.92 1009.07 1008.30 1007.58 1007.08 1006.53 1006.85 1007.08 1007.00 1006.70 1006.43 1005.72 1004.96 1004.00 1004.11 1004.05 1004.52 1004.43 1004.50
1001.25 1002.32 1003.29 1004.04 1004.77 1005.39 1005.97 1006.53 1007.18 1007.93 1008.78 1009.95 1010.29 1010.93 1011.86 1012.17 1011.34 1010.00 1009.70 1009.30 1009.10 1009.00 1010.18 1010.84 1009.99 1010.07 1010.11 1009.70 1008.98 1008.56 1008.01 1007.53 1006.69 1005.97 1006.11 1005.91 1005.26 1004.92 1004.97 1004.44 1004.61 1004.53 1004.48 1005.08 1005.52 1005.31 1005.31
Thickness
5541 5540 5543 5545 5547 5547 5548 5546 5547 5547 5549 5551 5552 5554 5554 5557 5557 5559 5559 5559 5555 5551 5553 5553 5555 5559 5573 5591 5606 5627 5634 5643 5648 5651 5656 5663 5664 5667 5668 5678 5678 5675 5689 5691 5689 5687 5684
5534 5530 5530 5534 5535 5537 5539 5539 5539 5539 5543 5544 5544 5546 5546 5549 5551 5552 5553 5554 5553 5551 5545 5545 5545 5549 5560 5577 5607 5617 5621 5633 5639 5643 5649 5658 5661 5669 5668 5672 5673 5686 5685 5688 5689 5686 5686
5525 5525 5519 5520 5524 5526 5529 5531 5530 5533 5531 5537 5539 5539 5538 5542 5545 5546 5547 5550 5550 5549 5545 5540 5539 5543 5554 5580 5601 5609 5612 5620 5629 5635 5641 5653 5657 5654 5667 5664 5677 5680 5670 5679 5684 5685 5685
5513 5515 5513 5511 5514 5514 5518 5520 5521 5523 5524 5529 5530 5531 5531 5538 5540 5542 5545 5546 5549 5549 5545 5539 5537 5538 5557 5584 5589 5600 5605 5615 5621 5627 5633 5647 5651 5650 5654 5672 5667 5664 5670 5668 5689 5686 5685
5505 5505 5506 5501 5503 5504 5509 5510 5515 5514 5519 5520 5517 5520 5524 5531 5535 5538 5544 5548 5549 5549 5544 5537 5537 5538 5565 5580 5585 5599 5607 5607 5616 5621 5628 5637 5642 5645 5651 5650 5654 5663 5664 5668 5676 5683 5683
5490 5496 5495 5494 5493 5499 5496 5503 5507 5506 5509 5509 5509 5511 5518 5523 5528 5532 5540 5549 5550 5546 5542 5537 5536 5532 5564 5574 5585 5593 5601 5604 5609 5614 5615 5623 5633 5638 5643 5649 5650 5659 5657 5670 5668 5678 5675
5481 5478 5486 5486 5482 5487 5490 5493 5497 5497 5497 5499 5502 5505 5511 5516 5520 5526 5537 5552 5551 5552 5540 5545 5553 5555 5561 5569 5579 5591 5595 5596 5605 5610 5612 5624 5624 5634 5655 5655 5658 5665 5661 5665 5676 5674 5667
5472 5471 5470 5474 5473 5476 5480 5485 5485 5485 5486 5488 5493 5498 5502 5507 5513 5518 5527 5534 5517 5512 5526 5538 5549 5553 5552 5553 5557 5579 5589 5588 5596 5604 5615 5611 5619 5651 5650 5651 5646 5650 5650 5657 5667 5663 5661
5466 5464 5459 5462 5463 5466 5469 5473 5474 5475 5478 5479 5484 5488 5494 5499 5505 5509 5515 5517 5513 5511 5522 5557 5557 5553 5553 5548 5556 5567 5579 5586 5591 5600 5609 5614 5637 5645 5635 5634 5634 5648 5646 5649 5648 5654 5660
5455 5454 5452 5451 5454 5455 5460 5460 5462 5466 5469 5471 5475 5479 5485 5491 5497 5501 5509 5507 5508 5505 5521 5560 5561 5558 5552 5553 5552 5563 5574 5584 5586 5591 5596 5608 5633 5625 5625 5630 5638 5638 5653 5644 5644 5638 5646
5442 5445 5443 5442 5447 5447 5446 5450 5452 5454 5458 5463 5466 5469 5474 5480 5487 5496 5494 5497 5501 5500 5544 5560 5559 5561 5554 5552 5557 5560 5573 5570 5576 5587 5592 5612 5614 5621 5621 5634 5640 5642 5646 5638 5640 5639 5642
5429 5434 5434 5432 5435 5437 5436 5438 5442 5444 5447 5453 5458 5461 5465 5473 5475 5481 5484 5488 5496 5517 5539 5545 5554 5552 5551 5557 5554 5559 5558 5570 5580 5579 5593 5608 5616 5615 5622 5633 5633 5638 5629 5631 5634 5636 5622
5419 5421 5421 5421 5423 5424 5426 5428 5431 5434 5435 5441 5446 5450 5454 5460 5472 5468 5473 5487 5506 5522 5540 5535 5538 5547 5551 5557 5559 5553 5552 5551 5567 5557 5574 5593 5602 5611 5617 5619 5625 5625 5620 5619 5620 5618 5624
5409 5407 5406 5410 5407 5410 5415 5417 5418 5423 5424 5429 5436 5439 5447 5451 5457 5456 5463 5484 5495 5517 5522 5526 5529 5542 5550 5555 5560 5562 5554 5548 5566 5570 5577 5577 5581 5600 5614 5619 5622 5624 5632 5629 5616 5623 5644
5389 5390 5390 5392 5394 5396 5400 5403 5407 5411 5413 5417 5424 5433 5439 5443 5446 5444 5447 5470 5506 5507 5508 5510 5523 5532 5540 5545 5550 5557 5558 5556 5563 5570 5569 5574 5584 5606 5609 5614 5620 5616 5610 5634 5623 5620 5626
5371 5372 5373 5376 5378 5382 5385 5390 5394 5398 5399 5403 5410 5418 5433 5436 5437 5436 5435 5461 5487 5491 5491 5497 5505 5514 5520 5527 5540 5550 5550 5553 5555 5571 5578 5583 5578 5597 5602 5606 5613 5619 5632 5607 5611 5602 5606
5354 5355 5358 5360 5362 5367 5371 5376 5381 5384 5387 5389 5397 5413 5429 5427 5424 5425 5437 5462 5474 5479 5478 5481 5490 5498 5506 5511 5521 5533 5538 5547 5549 5561 5570 5580 5581 5583 5594 5595 5606 5606 5611 5620 5630 5627 5618
5345 5345 5345 5346 5348 5352 5355 5361 5366 5371 5373 5376 5389 5399 5415 5413 5412 5421 5430 5453 5459 5468 5467 5470 5477 5483 5490 5496 5504 5516 5525 5537 5541 5555 5562 5574 5573 5578 5592 5598 5612 5619 5614 5617 5608 5609 5616
5335 5334 5335 5336 5337 5339 5342 5346 5352 5356 5360 5366 5382 5392 5401 5401 5406 5415 5429 5434 5448 5458 5460 5461 5465 5472 5481 5485 5489 5507 5521 5530 5529 5540 5544 5558 5570 5569 5579 5588 5595 5597 5599 5605 5605 5606 5608
5326 5325 5326 5326 5327 5328 5329 5333 5338 5344 5347 5349 5367 5381 5387 5390 5403 5417 5428 5431 5437 5445 5449 5452 5456 5457 5465 5474 5485 5495 5506 5517 5523 5526 5529 5547 5561 5570 5577 5585 5590 5578 5584 5589 5597 5593 5603
5319 5318 5318 5315 5313 5314 5316 5320 5326 5333 5335 5338 5352 5372 5397 5388 5397 5404 5414 5422 5439 5436 5438 5443 5446 5451 5455 5456 5477 5484 5495 5504 5514 5519 5533 5538 5537 5555 5563 5566 5570 5574 5579 5583 5584 5588 5583
5313 5312 5312 5311 5307 5304 5302 5306 5315 5322 5326 5329 5345 5362 5374 5393 5402 5400 5409 5411 5426 5427 5431 5437 5439 5446 5448 5451 5464 5477 5480 5487 5495 5509 5515 5525 5537 5543 5546 5558 5560 5562 5574 5580 5584 5587 5587
5309 5307 5307 5306 5303 5300 5297 5300 5309 5315 5317 5332 5338 5349 5352 5384 5393 5402 5411 5412 5420 5423 5430 5438 5438 5439 5437 5450 5454 5461 5463 5472 5481 5490 5496 5508 5522 5531 5539 5543 5549 5552 5570 5577 5583 5591 5589
5307 5305 5304 5303 5300 5299 5298 5301 5308 5312 5318 5326 5334 5337 5344 5363 5379 5400 5404 5410 5417 5420 5423 5432 5426 5429 5434 5437 5447 5452 5458 5465 5473 5483 5487 5497 5510 5514 5526 5524 5527 5568 5572 5572 5573 5580 5583
5306 5305 5303 5302 5300 5300 5300 5302 5306 5310 5314 5319 5326 5329 5340 5360 5385 5394 5399 5406 5412 5414 5401 5407 5426 5425 5419 5410 5426 5451 5466 5466 5475 5480 5485 5488 5499 5502 5510 5525 5545 5550 5563 5566 5565 5570 5571
5309 5307 5305 5304 5303 5302 5303 5304 5307 5310 5313 5317 5325 5328 5334 5343 5372 5395 5398 5403 5406 5410 5409 5403 5404 5410 5407 5410 5427 5449 5472 5483 5481 5483 5486 5481 5487 5496 5499 5508 5515 5548 5551 5558 5561 5553 5564
5316 5313 5310 5308 5307 5305 5306 5307 5309 5312 5314 5318 5328 5327 5328 5339 5363 5374 5390 5399 5402 5399 5398 5401 5400 5405 5404 5415 5430 5452 5464 5474 5482 5485 5471 5473 5481 5489 5498 5504 5519 5535 5545 5550 5542 5543 5552
5328 5323 5319 5315 5313 5311 5311 5313 5315 5317 5319 5317 5329 5329 5332 5341 5353 5373 5386 5393 5399 5395 5393 5404 5399 5401 5404 5421 5439 5450 5458 5473 5479 5488 5482 5480 5489 5493 5500 5496 5500 5534 5534 5535 5538 5542 5543
5342 5334 5327 5324 5321 5320 5320 5322 5323 5324 5325 5323 5330 5333 5332 5336 5356 5375 5384 5394 5401 5407 5399 5395 5418 5417 5425 5434 5448 5455 5457 5465 5479 5484 5492 5492 5507 5510 5514 5517 5520 5523 5527 5528 5526 5529 5531